DW7898 Weather Reports


time (UTC)temp
C
wind
direction
speed
KPH
gust
KPH
rain 1hr
cm
rain 24hr
cm
rain mn
cm
humidity
%
barometer
mb
20260509103358 19 71 6.4 20.9 0.00 0.00 0.00 61 1014.5
20260509102355 19 153 11.3 19.3 0.00 0.00 0.00 63 1014.5
20260509101337 19 63 6.4 22.5 0.00 0.00 0.00 63 1014.4
20260509100340 19 85 3.2 19.3 0.00 0.00 0.00 63 1014.4
20260509095340 19 87 8.0 11.3 0.00 0.00 0.00 64 1014.4
20260509094354 19 78 4.8 20.9 0.00 0.00 0.00 64 1014.3
20260509093357 19 35 9.7 14.5 0.00 0.00 0.00 65 1014.2
20260509092355 19 71 8.0 17.7 0.00 0.00 0.00 66 1014.2
20260509091356 18 111 4.8 14.5 0.00 0.00 0.00 68 1014.0
20260509090338 18 75 9.7 14.5 0.00 0.00 0.00 69 1013.8
20260509085357 18 55 8.0 16.1 0.00 0.00 0.00 70 1014.0
20260509084342 18 72 8.0 17.7 0.00 0.00 0.00 69 1014.0
20260509083348 18 95 8.0 16.1 0.00 0.00 0.00 70 1013.8
20260509082338 18 68 4.8 14.5 0.00 0.00 0.00 70 1013.7
20260509081359 18 43 6.4 16.1 0.00 0.00 0.00 70 1013.8
20260509080340 18 46 9.7 16.1 0.00 0.00 0.00 72 1013.8
20260509075401 17 76 3.2 12.9 0.00 0.00 0.00 73 1014.0
20260509074341 17 14 6.4 14.5 0.00 0.00 0.00 73 1014.0
20260509073349 17 51 11.3 17.7 0.00 0.00 0.00 75 1014.1
20260509072345 17 79 6.4 11.3 0.00 0.00 0.00 76 1014.2
20260509071352 16 41 4.8 12.9 0.00 0.00 0.00 76 1014.5
20260509070352 16 23 8.0 16.1 0.00 0.00 0.00 76 1014.6
20260509065348 16 54 8.0 12.9 0.00 0.00 0.00 76 1014.6
20260509064354 16 50 9.7 17.7 0.00 0.00 0.00 77 1014.6
20260509063357 16 20 6.4 14.5 0.00 0.00 0.00 77 1014.7
20260509062351 15 93 4.8 14.5 0.00 0.00 0.00 77 1014.8
20260509061357 15 31 4.8 11.3 0.00 0.00 0.00 78 1014.8
20260509060340 15 45 6.4 9.7 0.00 0.00 0.00 77 1014.9
20260509055358 15 44 6.4 11.3 0.00 0.00 0.00 76 1014.8
20260509054339 15 36 6.4 9.7 0.00 0.00 0.00 76 1014.6
20260509053342 15 44 4.8 11.3 0.00 0.00 0.00 76 1014.5
20260509052359 15 46 6.4 9.7 0.00 0.00 0.00 76 1014.7
20260509051354 15 62 4.8 9.7 0.00 0.00 0.00 76 1014.5
20260509050355 15 30 4.8 9.7 0.00 0.00 0.00 76 1015.0
20260509045355 15 41 3.2 11.3 0.00 0.00 0.00 76 1014.8
20260509044353 15 37 4.8 8.0 0.00 0.00 0.00 76 1014.8
20260509043358 15 59 4.8 6.4 0.00 0.00 0.00 76 1014.8
20260509042350 15 22 3.2 8.0 0.00 0.00 0.00 76 1014.9
20260509041353 15 57 3.2 11.3 0.00 0.00 0.00 76 1014.9
20260509040355 15 31 4.8 8.0 0.00 0.00 0.00 77 1014.7
20260509035355 15 21 4.8 8.0 0.00 0.00 0.00 76 1014.8
20260509034355 15 0 3.2 6.4 0.00 0.00 0.00 76 1014.9
20260509033340 15 25 4.8 8.0 0.00 0.00 0.00 75 1015.0
20260509032338 15 14 0.0 3.2 0.00 0.00 0.00 76 1015.0
20260509031337 15 14 0.0 6.4 0.00 0.00 0.00 76 1014.9
20260509030338 15 11 3.2 6.4 0.00 0.00 0.00 76 1015.0
20260509025354 15 20 1.6 8.0 0.00 0.00 0.00 76 1015.0
20260509024356 15 48 4.8 6.4 0.00 0.00 0.00 76 1014.8
20260509023342 15 37 1.6 8.0 0.00 0.00 0.00 76 1015.0
20260509022340 15 34 6.4 8.0 0.00 0.00 0.00 75 1015.3
20260509021338 15 40 4.8 8.0 0.00 0.00 0.00 75 1015.3
20260509020340 15 38 4.8 9.7 0.00 0.00 0.00 75 1015.2
20260509015357 15 24 6.4 8.0 0.00 0.00 0.00 75 1015.5
20260509014339 15 27 3.2 8.0 0.00 0.00 0.00 75 1015.6
20260509013341 15 57 3.2 8.0 0.00 0.00 0.00 76 1015.8
20260509012359 15 37 4.8 9.7 0.00 0.00 0.00 76 1015.9
20260509011358 15 23 6.4 9.7 0.00 0.00 0.00 76 1015.6
20260509010337 15 46 4.8 6.4 0.00 0.00 0.00 76 1015.9
20260509005340 15 44 1.6 8.0 0.00 0.00 0.00 76 1016.0
20260509004354 15 22 4.8 9.7 0.00 0.00 0.00 76 1016.1
20260509003357 15 30 6.4 9.7 0.00 0.00 0.00 76 1016.3
20260509002338 15 44 1.6 8.0 0.00 0.00 0.00 76 1016.2
20260509001358 15 50 4.8 8.0 0.00 0.00 0.00 76 1016.1
20260509000356 15 45 3.2 8.0 0.00 0.00 0.00 76 1016.4
20260508235357 15 34 4.8 9.7 0.00 0.00 0.00 76 1016.3
20260508234338 15 21 4.8 9.7 0.00 0.00 0.00 76 1016.2
20260508233341 15 25 1.6 8.0 0.00 0.00 0.00 76 1016.4
20260508232338 15 17 8.0 11.3 0.00 0.00 0.00 76 1016.4
20260508231356 15 45 3.2 8.0 0.00 0.00 0.00 76 1016.4
20260508230338 15 51 4.8 9.7 0.00 0.00 0.00 76 1016.4
20260508225354 15 61 3.2 9.7 0.00 0.00 0.00 77 1016.5
20260508224337 15 62 3.2 8.0 0.00 0.00 0.00 77 1016.5
20260508223340 15 27 4.8 9.7 0.00 0.00 0.00 76 1016.5
20260508222342 15 49 6.4 8.0 0.00 0.00 0.00 75 1016.7
20260508221344 15 16 0.0 8.0 0.00 0.00 0.00 75 1016.6
20260508220348 15 25 3.2 8.0 0.00 0.00 0.00 74 1016.6
20260508215349 15 37 3.2 8.0 0.00 0.00 0.00 74 1016.5
20260508214356 15 48 4.8 6.4 0.00 0.00 0.00 73 1016.7
20260508213337 16 90 0.0 1.6 0.00 0.00 0.00 72 1016.7
20260508212354 16 90 0.0 0.0 0.00 0.00 0.00 72 1016.7
20260508211357 16 90 0.0 0.0 0.00 0.00 0.00 71 1016.6
20260508210338 16 90 0.0 0.0 0.00 0.00 0.00 71 1016.7
20260508205358 16 90 0.0 0.0 0.00 0.00 0.00 71 1016.6
20260508204344 16 90 0.0 3.2 0.00 0.00 0.00 71 1016.5
20260508203353 16 90 0.0 3.2 0.00 0.00 0.00 71 1016.5
20260508202350 16 90 0.0 6.4 0.00 0.00 0.00 71 1016.3
20260508201349 16 94 1.6 8.0 0.00 0.00 0.00 71 1016.1
20260508200338 16 100 3.2 9.7 0.00 0.00 0.00 71 1016.0
20260508195355 16 93 0.0 6.4 0.00 0.00 0.00 70 1015.9
20260508194357 17 96 1.6 8.0 0.00 0.00 0.00 69 1015.9
20260508193342 17 99 3.2 8.0 0.00 0.00 0.00 68 1015.8
20260508192342 17 97 3.2 6.4 0.00 0.00 0.00 67 1015.6
20260508191344 17 107 3.2 6.4 0.00 0.00 0.00 66 1015.5
20260508190344 17 114 1.6 4.8 0.00 0.00 0.00 66 1015.5
20260508185338 17 121 0.0 0.0 0.00 0.00 0.00 66 1015.5
20260508184339 17 122 0.0 0.0 0.00 0.00 0.00 66 1015.3
20260508183345 17 123 0.0 6.4 0.00 0.00 0.00 66 1015.3
20260508182339 17 122 3.2 6.4 0.00 0.00 0.00 66 1015.1
20260508181345 18 121 3.2 8.0 0.00 0.00 0.00 66 1015.0
20260508180353 18 126 3.2 14.5 0.00 0.00 0.00 66 1015.0
20260508175348 18 83 1.6 12.9 0.00 0.00 0.00 66 1014.9
20260508174347 18 139 8.0 14.5 0.00 0.00 0.00 66 1015.0
20260508173353 18 128 9.7 17.7 0.00 0.00 0.00 65 1014.9
20260508172356 18 119 8.0 17.7 0.00 0.00 0.00 63 1014.8
20260508171340 18 137 8.0 16.1 0.00 0.00 0.00 63 1014.9
20260508170345 18 239 1.6 12.9 0.00 0.00 0.00 65 1014.6
20260508165347 18 193 6.4 17.7 0.00 0.00 0.00 64 1014.7
20260508164349 18 188 3.2 14.5 0.00 0.00 0.00 63 1014.7
20260508163340 19 200 4.8 14.5 0.00 0.00 0.00 62 1014.6
20260508162341 18 205 3.2 16.1 0.00 0.00 0.00 61 1014.6
20260508161345 18 100 8.0 17.7 0.00 0.00 0.00 61 1014.6
20260508160354 18 136 8.0 19.3 0.00 0.00 0.00 61 1014.7
20260508155353 18 109 11.3 19.3 0.00 0.00 0.00 60 1014.7
20260508154338 18 145 9.7 17.7 0.00 0.00 0.00 59 1014.7
20260508153340 19 113 8.0 17.7 0.00 0.00 0.00 60 1014.7
20260508152358 19 149 6.4 19.3 0.00 0.00 0.00 59 1014.8
20260508151338 19 333 3.2 16.1 0.00 0.00 0.00 62 1014.7
20260508150350 19 155 3.2 20.9 0.00 0.00 0.00 60 1014.5
20260508145346 19 174 3.2 12.9 0.00 0.00 0.00 60 1014.6
20260508144354 19 125 8.0 17.7 0.00 0.00 0.00 59 1014.6
20260508143355 19 123 9.7 16.1 0.00 0.00 0.00 58 1014.6
20260508142352 20 128 11.3 19.3 0.00 0.00 0.00 58 1014.7
20260508141354 20 123 6.4 14.5 0.00 0.00 0.00 55 1014.8
20260508140337 20 278 3.2 12.9 0.00 0.00 0.00 56 1014.9
20260508135340 20 149 4.8 12.9 0.00 0.00 0.00 56 1015.0
20260508134346 20 186 3.2 14.5 0.00 0.00 0.00 57 1015.1
20260508133351 20 131 4.8 14.5 0.00 0.00 0.00 54 1015.3
20260508132350 20 220 3.2 12.9 0.00 0.00 0.00 55 1015.4
20260508131355 20 222 3.2 11.3 0.00 0.00 0.00 55 1015.3
20260508130341 20 69 8.0 16.1 0.00 0.00 0.00 56 1015.2
20260508125358 19 129 6.4 16.1 0.00 0.00 0.00 57 1015.4
20260508124356 19 134 8.0 22.5 0.00 0.00 0.00 56 1015.5
20260508123354 19 121 4.8 16.1 0.00 0.00 0.00 54 1015.4
20260508122354 19 135 4.8 16.1 0.00 0.00 0.00 54 1015.4
20260508121340 19 159 6.4 12.9 0.00 0.00 0.00 56 1015.4
20260508120340 19 153 3.2 12.9 0.00 0.00 0.00 55 1015.5
20260508115340 18 120 6.4 17.7 0.00 0.00 0.00 56 1015.4
20260508114347 18 108 12.9 17.7 0.00 0.00 0.00 57 1015.4
20260508113350 19 166 6.4 17.7 0.00 0.00 0.00 58 1015.3
20260508112343 19 131 8.0 14.5 0.00 0.00 0.00 57 1015.2
20260508111347 19 74 8.0 14.5 0.00 0.00 0.00 58 1015.3
20260508110354 19 111 11.3 14.5 0.00 0.00 0.00 56 1015.2
20260508105356 18 128 6.4 12.9 0.00 0.00 0.00 56 1015.2
20260508104339 19 155 3.2 16.1 0.00 0.00 0.00 58 1015.3